This demonstration page uses our WeatherBlox Daily Observations layout. Learn more.

Left ArrowRight Arrow

30.21309, -93.2044

Hourly Observations for May 27, 2015

Temp ( °F °C ) Dew Point ( °F °C ) Humidity (%) Winds ( mph kmh ) Pressure ( in mb ) Visibility ( mi km ) Precip ( " mm )
12:15 am 00:15 Cloudy 75 24.1 73 22.5 91 91 SSE 7 11 30.03 1017 10 16 0.00 0.00
12:35 am 00:35 Mostly Cloudy 75 24 72 22.3 90 90 SE 5 7 30.06 1018 10 16 0.00 0.00
12:55 am 00:55 Cloudy 75 23.7 72 22.1 91 91 Calm 30.06 1018 10 16 0.00 0.00
1:15 am 01:15 Mostly Cloudy 75 24 72 22.4 91 91 Calm 30.06 1018 10 16 0.00 0.00
1:35 am 01:35 Mostly Cloudy 74 23.6 72 22.3 92 92 Calm 30.06 1018 10 16 0.00 0.00
1:55 am 01:55 Clear 74 23.6 73 22.5 94 94 Calm 30.06 1018 10 16 0.00 0.00
2:15 am 02:15 Clear 74 23.1 72 22.3 95 95 Calm 30.06 1018 10 16 0.00 0.00
2:35 am 02:35 Clear 73 22.9 72 22.1 95 95 Calm 30.06 1018 10 16 0.00 0.00
2:55 am 02:55 Clear 73 22.7 72 22.2 97 97 Calm 30.06 1018 10 16 0.00 0.00
3:15 am 03:15 Clear 74 23.1 72 22.3 95 95 E 3 6 30.06 1018 10 16 0.00 0.00
3:35 am 03:35 Clear 73 22.6 72 22.2 98 98 Calm 30.06 1018 10 16 0.00 0.00
3:55 am 03:55 Clear 73 22.5 72 22.1 98 98 Calm 30.06 1018 10 16 0.00 0.00
4:15 am 04:15 Clear 72 22.4 72 22 98 98 Calm 30.03 1017 10 16 0.00 0.00
4:35 am 04:35 Clear 72 22.3 72 22 98 98 ESE 3 6 30.00 1016 10 16 0.00 0.00
4:55 am 04:55 Clear 73 22.7 72 22.3 98 98 Calm 30.03 1017 10 16 0.00 0.00
5:15 am 05:15 Clear 73 22.7 72 22.4 98 98 Calm 30.03 1017 10 16 0.00 0.00
6:00 am 06:00 Mostly Cloudy 73 23 72 22 94 94 Calm 30.06 1018 10 16 0.00 0.00
6:55 am 06:55 Cloudy with Thunderstorms 73 23 72 22 94 94 NNW 15 24 30.06 1018 10 16 0.00 0.00
7:10 am 07:10 Cloudy with Strong Thunderstorms 66 19 66 19 100 100 NNW 15 24 30.06 1018 2 3 0.00 0.00
7:45 am 07:45 Cloudy with Thunderstorms 66 19 64 18 94 94 N 16 26 30.15 1021 4 6 0.00 0.00
8:50 am 08:50 Cloudy with Thunderstorms 66 19 64 18 94 94 N 16 26 30.18 1022 6 10 0.00 0.00
9:55 am 09:55 Cloudy with Thunderstorms 66 19 66 19 100 100 ESE 8 13 30.15 1021 6 10 0.00 0.00
10:45 am 10:45 Cloudy with Thunderstorms 68 20 66 19 94 94 SSE 13 20 30.18 1022 6 10 0.00 0.00
11:55 am 11:55 Cloudy 70 21 66 19 88 88 SE 6 9 30.12 1020 10 16 0.00 0.00
12:55 pm 12:55 Mostly Cloudy 79 26 66 19 65 65 SE 6 9 30.09 1019 10 16 0.00 0.00
2:50 pm 14:50 Mostly Sunny 84 29 66 19 55 55 Calm 30.06 1018 10 16 0.00 0.00
3:50 pm 15:50 Mostly Sunny 86 30 66 19 52 52 SSW 5 7 30.06 1018 10 16 0.00 0.00
4:50 pm 16:50 Mostly Sunny 88 31 66 19 49 49 Calm 30.03 1017 10 16 0.00 0.00
5:50 pm 17:50 Mostly Sunny 88 31 66 19 49 49 WSW 6 9 30.03 1017 10 16 0.00 0.00
6:50 pm 18:50 Mostly Sunny 86 30 66 19 52 52 SSW 7 11 30.03 1017 10 16 0.00 0.00
7:50 pm 19:50 Partly Cloudy 79 26 72 22 79 79 SSE 6 9 30.06 1018 10 16 0.00 0.00
8:50 pm 20:50 Cloudy 77 25 72 22 83 83 S 5 7 30.09 1019 10 16 0.00 0.00
9:50 pm 21:50 Mostly Clear 77 25 72 22 83 83 SSW 5 7 30.09 1019 10 16 0.00 0.00
10:15 pm 22:15 Clear 74 23.4 71 21.8 91 91 SSE 5 7 30.09 1019 10 16 0.00 0.00
10:35 pm 22:35 Clear 73 23 72 22 94 94 SE 3 6 30.09 1019 10 16 0.00 0.00
10:55 pm 22:55 Clear 73 23 71 21.7 92 92 SSE 5 7 30.09 1019 10 16 0.00 0.00
11:15 pm 23:15 Clear 74 23.1 71 21.8 92 92 Calm 30.09 1019 10 16 0.00 0.00
11:35 pm 23:35 Clear 73 23 71 21.8 93 93 Calm 30.09 1019 10 16 0.00 0.00
11:55 pm 23:55 Clear 73 23 72 22 94 94 Calm 30.09 1019 10 16 0.00 0.00

Powered by AerisWeather